Date String (YYYY-MM-DD hh:mm:ss) UTC,Instrument flags,absolute air pressure of the measurement (hPa),sample flow rate (lpm),inlet stack bypass flow (lpm),air temperature of the measurement (°C),ambient temperature measured by the external sensor (°C),aerosol sample conditioner tube jacket temperature (°C),OPC LED temperature (°C),internal box temperature (°C),relative humidity of the measurement (%),span deviation,mass concentration of particles derived from Lorenz-Mie calculation of OPC scattering (μg/m³),mass concentration of particles derived from Lorenz-Mie calculation of OPC scattering (μg/m³),mass concentration of particles derived from Lorenz-Mie calculation of OPC scattering (μg/m³)
DateTimeUTC,F1_M11,P_M11,Q1_M11,Q2_M11,T1_M11,T2_M11,T3_M11,T4_M11,T5_M11,U1_M11,ZSPAN_M11,X0_M11,X2_M11,X1_M11
2023-10-17 04:00:00,SystemResetWarning,0834.2,5.00,000.00,028.4,026.5,000.0,037.0,030.0,14.5,0000.0,0009.98,0003.57,0002.79
2023-10-17 04:01:00,SystemResetWarning,0834.4,5.01,000.00,028.4,026.7,000.0,037.0,030.0,14.5,0000.0,0010.36,0003.57,0002.79
2023-10-17 04:02:00,SystemResetWarning,0834.3,5.01,000.00,028.4,026.8,000.0,037.0,030.1,14.5,0000.0,0010.32,0003.61,0002.81
2023-10-17 04:03:00,SystemResetWarning,0834.2,4.99,000.00,028.4,026.8,000.0,037.0,030.1,14.5,0000.0,0010.02,0003.63,0002.81
2023-10-17 04:04:00,SystemResetWarning,0834.2,4.99,000.00,028.5,026.9,000.0,037.0,030.1,14.4,0000.0,0010.68,0003.66,0002.81
2023-10-17 04:05:00,SystemResetWarning,0834.2,5.00,000.00,028.5,027.0,000.0,037.0,030.1,14.4,0000.0,0010.70,0003.71,0002.83
2023-10-17 04:06:00,SystemResetWarning,0834.2,5.00,000.00,028.5,027.0,000.0,037.0,030.1,14.4,0000.0,0010.65,0003.74,0002.84
2023-10-17 04:07:00,SystemResetWarning,0834.2,5.00,000.00,028.5,027.1,000.0,037.0,030.1,14.4,0000.0,0010.58,0003.71,0002.83
2023-10-17 04:08:00,SystemResetWarning,0834.2,5.00,000.00,028.5,027.1,000.0,037.0,030.2,14.4,0000.0,0010.71,0003.69,0002.83
2023-10-17 04:09:00,SystemResetWarning,0834.1,5.01,000.00,028.5,027.2,000.0,037.0,030.1,14.4,0000.0,0010.69,0003.71,0002.84
2023-10-17 04:10:00,SystemResetWarning,0834.1,5.00,000.00,028.5,027.2,000.0,037.0,030.2,14.3,0000.0,0011.05,0003.72,0002.85
2023-10-17 04:11:00,SystemResetWarning,0834.1,5.00,000.00,028.6,027.2,000.0,037.0,030.2,14.3,0000.0,0011.00,0003.71,0002.86
2023-10-17 04:12:00,SystemResetWarning,0834.1,4.99,000.00,028.6,027.2,000.0,037.0,030.2,14.3,0000.0,0010.30,0003.70,0002.85
2023-10-17 04:13:00,SystemResetWarning,0834.1,4.99,000.00,028.6,027.2,000.0,037.0,030.2,14.3,0000.0,0010.22,0003.69,0002.86
2023-10-17 04:14:00,SystemResetWarning,0834.1,5.00,000.00,028.6,027.3,000.0,037.0,030.2,14.3,0000.0,0010.71,0003.66,0002.85
2023-10-17 04:15:00,SystemResetWarning,0834.1,5.00,000.00,028.6,027.3,000.0,037.0,030.3,14.3,0000.0,0010.17,0003.61,0002.85
2023-10-17 04:16:00,SystemResetWarning,0834.1,5.00,000.00,028.6,027.3,000.0,037.0,030.3,14.3,0000.0,0009.77,0003.60,0002.86
2023-10-17 04:17:00,SystemResetWarning,0834.1,5.00,000.00,028.6,027.3,000.0,037.0,030.3,14.3,0000.0,0010.69,0003.60,0002.87
2023-10-17 04:18:00,SystemResetWarning,0834.1,5.00,000.00,028.6,027.3,000.0,037.0,030.3,14.2,0000.0,0010.89,0003.58,0002.89
2023-10-17 04:19:00,SystemResetWarning,0834.1,5.00,000.00,028.6,027.4,000.0,037.0,030.3,14.2,0000.0,0010.64,0003.57,0002.89
2023-10-17 04:20:00,SystemResetWarning,0834.1,5.00,000.00,028.7,027.4,000.0,037.0,030.3,14.2,0000.0,0010.73,0003.59,0002.91
2023-10-17 04:21:00,SystemResetWarning,0834.1,5.00,000.00,028.7,027.4,000.0,037.0,030.3,14.2,0000.0,0010.62,0003.56,0002.90
2023-10-17 04:22:00,SystemResetWarning,0834.1,5.00,000.00,028.7,027.4,000.0,037.1,030.3,14.2,0000.0,0010.69,0003.57,0002.89
2023-10-17 04:23:00,SystemResetWarning,0834.0,5.00,000.00,028.7,027.4,000.0,037.1,030.3,14.2,0000.0,0011.67,0003.64,0002.90
2023-10-17 04:24:00,SystemResetWarning,0834.0,5.00,000.00,028.7,027.4,000.0,037.1,030.3,14.2,0000.0,0011.39,0003.65,0002.89
2023-10-17 04:25:00,SystemResetWarning,0834.1,5.00,000.00,028.7,027.4,000.0,037.1,030.4,14.2,0000.0,0010.46,0003.62,0002.88
2023-10-17 04:26:00,SystemResetWarning,0834.1,5.00,000.00,028.7,027.4,000.0,037.1,030.4,14.1,0000.0,0010.39,0003.63,0002.89
2023-10-17 04:27:00,SystemResetWarning,0834.0,5.00,000.00,028.7,027.4,000.0,037.1,030.4,14.1,0000.0,0010.86,0003.62,0002.89
2023-10-17 04:28:00,SystemResetWarning,0834.0,5.00,000.00,028.7,027.4,000.0,037.1,030.4,14.1,0000.0,0010.24,0003.63,0002.89
2023-10-17 04:29:00,SystemResetWarning,0834.0,4.99,000.00,028.8,027.4,000.0,037.1,030.4,14.1,0000.0,0010.09,0003.64,0002.90
2023-10-17 04:30:00,SystemResetWarning,0834.0,5.00,000.00,028.8,027.5,000.0,037.1,030.4,14.1,0000.0,0009.97,0003.64,0002.92
2023-10-17 04:31:00,SystemResetWarning,0834.0,5.00,000.00,028.8,027.5,000.0,037.1,030.4,14.1,0000.0,0010.01,0003.62,0002.92
2023-10-17 04:32:00,SystemResetWarning,0834.0,5.00,000.00,028.8,027.5,000.0,037.1,030.4,14.1,0000.0,0010.11,0003.61,0002.93
2023-10-17 04:33:00,SystemResetWarning,0833.9,5.00,000.00,028.8,027.5,000.0,037.2,030.4,14.1,0000.0,0010.02,0003.62,0002.93
2023-10-17 04:34:00,SystemResetWarning,0834.0,5.00,000.00,028.8,027.5,000.0,037.2,030.5,14.1,0000.0,0008.93,0003.59,0002.93
2023-10-17 04:35:00,SystemResetWarning,0834.0,5.00,000.00,028.8,027.5,000.0,037.2,030.5,14.1,0000.0,0008.77,0003.58,0002.93
2023-10-17 04:36:00,SystemResetWarning,0834.0,5.00,000.00,028.8,027.5,000.0,037.2,030.5,14.1,0000.0,0009.27,0003.62,0002.94
2023-10-17 04:37:00,SystemResetWarning,0834.0,5.00,000.00,028.8,027.5,000.0,037.2,030.5,14.1,0000.0,0010.20,0003.65,0002.94
2023-10-17 04:38:00,SystemResetWarning,0833.9,5.00,000.00,028.8,027.5,000.0,037.2,030.5,14.0,0000.0,0010.45,0003.69,0002.95
2023-10-17 04:39:00,SystemResetWarning,0833.9,5.00,000.00,028.8,027.5,000.0,037.2,030.5,14.0,0000.0,0009.97,0003.65,0002.96
2023-10-17 04:40:00,SystemResetWarning,0834.0,4.99,000.00,028.8,027.5,000.0,037.2,030.5,14.0,0000.0,0009.93,0003.64,0002.95
2023-10-17 04:41:00,SystemResetWarning,0834.0,5.00,000.00,028.8,027.5,000.0,037.3,030.5,14.0,0000.0,0009.81,0003.66,0002.94
2023-10-17 04:42:00,SystemResetWarning,0834.0,5.00,000.00,028.8,027.4,000.0,037.2,030.5,14.0,0000.0,0010.84,0003.66,0002.94
2023-10-17 04:43:00,SystemResetWarning,0833.9,5.00,000.00,028.8,027.4,000.0,037.2,030.5,14.0,0000.0,0010.66,0003.63,0002.93
2023-10-17 04:44:00,SystemResetWarning,0833.9,5.01,000.00,028.9,027.5,000.0,037.3,030.5,14.0,0000.0,0010.62,0003.63,0002.92
2023-10-17 04:45:00,SystemResetWarning,0833.9,5.01,000.00,028.9,027.5,000.0,037.3,030.5,14.0,0000.0,0010.61,0003.62,0002.94
2023-10-17 04:46:00,SystemResetWarning,0833.9,5.01,000.00,028.9,027.5,000.0,037.3,030.5,14.0,0000.0,0010.49,0003.60,0002.94
2023-10-17 04:47:00,SystemResetWarning,0833.9,5.01,000.00,028.9,027.5,000.0,037.3,030.5,14.0,0000.0,0010.19,0003.62,0002.96
2023-10-17 04:48:00,SystemResetWarning,0833.9,4.98,000.00,028.9,027.5,000.0,037.3,030.5,14.0,0000.0,0009.55,0003.64,0002.99
2023-10-17 04:49:00,SystemResetWarning,0833.9,5.00,000.00,028.9,027.5,000.0,037.3,030.5,14.0,0000.0,0009.41,0003.64,0002.97
2023-10-17 04:50:00,SystemResetWarning,0833.8,5.01,000.00,028.9,027.5,000.0,037.3,030.5,14.0,0000.0,0010.30,0003.69,0002.96
2023-10-17 04:51:00,SystemResetWarning,0833.8,5.00,000.00,028.9,027.5,000.0,037.3,030.5,14.0,0000.0,0010.23,0003.70,0002.97
2023-10-17 04:52:00,SystemResetWarning,0833.8,4.98,000.00,028.9,027.5,000.0,037.3,030.5,14.0,0000.0,0010.73,0003.67,0002.96
2023-10-17 04:53:00,SystemResetWarning,0833.8,5.00,000.00,028.9,027.5,000.0,037.3,030.5,14.0,0000.0,0009.99,0003.70,0002.95
2023-10-17 04:54:00,SystemResetWarning,0833.8,5.01,000.00,028.9,027.5,000.0,037.3,030.5,14.0,0000.0,0009.84,0003.74,0002.96
2023-10-17 04:55:00,SystemResetWarning,0833.8,5.00,000.00,028.9,027.5,000.0,037.3,030.5,14.0,0000.0,0009.92,0003.76,0002.98
2023-10-17 04:56:00,SystemResetWarning,0833.8,5.00,000.00,028.9,027.5,000.0,037.3,030.5,14.0,0000.0,0009.82,0003.74,0002.98
2023-10-17 04:57:00,SystemResetWarning,0833.8,4.98,000.00,028.9,027.5,000.0,037.3,030.5,14.0,0000.0,0009.78,0003.73,0002.98
2023-10-17 04:58:00,SystemResetWarning,0833.7,5.01,000.00,028.9,027.5,000.0,037.3,030.5,14.0,0000.0,0009.73,0003.71,0002.97
2023-10-17 04:59:00,SystemResetWarning,0833.7,5.01,000.00,028.9,027.5,000.0,037.3,030.5,14.0,0000.0,0009.53,0003.69,0002.95
